Regional Weather Roundup
Issued by NWS

Home | Current Version | Previous Version | Graphics & Text | Print | Product List | Glossary On
Versions: 1 2 3 4 5 6 7 8 9 10 11 12 13 14 15 16 17 18 19 20 21 22 23 24 25 26 27 28 29 30 31 32 33 34 35 36 37 38 39 40 41 42 43 44 45 46 47 48 49 50
277
ASUS43 KFSD 241610
RWRSD

WEATHER ROUNDUP FOR SOUTH DAKOTA
NATIONAL WEATHER SERVICE SIOUX FALLS SD
1100 AM CDT SAT SEP 24 2016

NOTE: "FAIR" INDICATES FEW OR NO CLOUDS BELOW 12,000 FEET WITH NO
SIGNIFICANT WEATHER AND/OR OBSTRUCTIONS TO VISIBILITY.


SDZ001>005-009-010-012>017-241700-
NORTHWEST AND NORTH CENTRAL SOUTH DAKOTA

CITY           SKY/WX    TMP DP  RH WIND       PRES   REMARKS
BUFFALO          N/A     59  57  93 SW21      29.65R
FAITH            N/A     61  59  93 SW14      29.75S
MOBRIDGE       CLOUDY    69  57  65 SE15      29.74S
$$

SDZ012>016-024>037-041>051-057-063-072>074-241700-
SOUTHWEST AND SOUTH CENTRAL SOUTH DAKOTA

CITY           SKY/WX    TMP DP  RH WIND       PRES   REMARKS
RAPID CTY ARPT SUNNY     62  45  53 W10       29.79S
PIERRE         SUNNY     65  53  65 S12       29.79R
CUSTER         CLOUDY    45  39  79 W20G25    29.87R
ELLSWORTH AFB  SUNNY     61  45  54 W14G20    29.79R
PHILIP         SUNNY     63  47  55 W22       29.82R
PINE RIDGE     SUNNY     58  43  57 SW16G24   29.90R
WINNER         FAIR      67  49  52 SW6       29.86S
$$

SDZ004>011-016>023-039-040-241700-
NORTHEAST SOUTH DAKOTA

CITY           SKY/WX    TMP DP  RH WIND       PRES   REMARKS
ABERDEEN       MOSUNNY   76  65  68 S21G33    29.82R
WATERTOWN      CLOUDY    73  65  75 S21G30    29.90R
BROOKINGS      CLOUDY    72  66  81 SE20G25   29.91R
SISSETON         N/A     73  66  78 S16G26    29.87F
$$

SDZ017-020-022-023-036>040-048>070-241700-
SOUTHEAST SOUTH DAKOTA

CITY           SKY/WX    TMP DP  RH WIND       PRES   REMARKS
SIOUX FALLS    CLOUDY    76  67  73 SE18G25   29.91S
HURON          CLOUDY    74  65  73 S16G26    29.83R
CHAMBERLAIN    CLOUDY    66  53  63 SW9       29.86R
MITCHELL       CLOUDY    77  66  68 S18G24    29.85S
YANKTON        CLOUDY    73  66  78 SE15G25   29.87S
$$

ABBREVIATIONS USED IN REMARKS
   TC - TEMPERATURE IN CELSIUS
  WCI - WIND CHILL INDEX
   HX - HEAT INDEX
  VSB - VISIBILITY





USA.gov is the U.S. government's official web portal to all federal, state and local government web resources and services.